Year,Month,Day,Hour,Minute,Value (Times are PST for temperature in C)
2010,01,13,00,00,8.50
2010,01,13,00,01,8.50
2010,01,13,00,02,8.40
2010,01,13,00,03,8.40
2010,01,13,00,04,8.40
2010,01,13,00,05,8.40
2010,01,13,00,06,8.40
2010,01,13,00,07,8.40
2010,01,13,00,08,8.40
2010,01,13,00,09,8.40
2010,01,13,00,10,8.40
2010,01,13,00,11,8.30
2010,01,13,00,12,8.30
2010,01,13,00,13,8.30
2010,01,13,00,14,8.30
2010,01,13,00,15,8.30
2010,01,13,00,16,8.30
2010,01,13,00,17,8.30
2010,01,13,00,18,8.30
2010,01,13,00,19,8.30
2010,01,13,00,20,8.30
2010,01,13,00,21,8.30
2010,01,13,00,22,8.30
2010,01,13,00,23,8.30
2010,01,13,00,24,8.30
2010,01,13,00,25,8.30
2010,01,13,00,26,8.30
2010,01,13,00,27,8.30
2010,01,13,00,28,8.30
2010,01,13,00,29,8.30
2010,01,13,00,30,8.30
2010,01,13,00,31,8.30
2010,01,13,00,32,8.30
2010,01,13,00,33,8.20
2010,01,13,00,34,8.20
2010,01,13,00,35,8.20
2010,01,13,00,36,8.20
2010,01,13,00,37,8.20
2010,01,13,00,38,8.20
2010,01,13,00,39,8.20
2010,01,13,00,40,8.20
2010,01,13,00,41,8.20
2010,01,13,00,42,8.20
2010,01,13,00,43,8.20
2010,01,13,00,44,8.20
2010,01,13,00,45,8.20
2010,01,13,00,46,8.20
2010,01,13,00,47,8.20
2010,01,13,00,48,8.20
2010,01,13,00,49,8.20
2010,01,13,00,50,8.20
2010,01,13,00,51,8.20
2010,01,13,00,52,8.20
2010,01,13,00,53,8.20
2010,01,13,00,54,8.20
2010,01,13,00,55,8.20
2010,01,13,00,56,8.20
2010,01,13,00,57,8.20
2010,01,13,00,58,8.20
2010,01,13,00,59,8.20
2010,01,13,01,00,8.20
2010,01,13,01,01,8.20
2010,01,13,01,02,8.20
2010,01,13,01,03,8.20
2010,01,13,01,04,8.20
2010,01,13,01,05,8.20
2010,01,13,01,06,8.20
2010,01,13,01,07,8.20
2010,01,13,01,08,8.20
2010,01,13,01,09,8.20
2010,01,13,01,10,8.20
2010,01,13,01,11,8.20
2010,01,13,01,12,8.20
2010,01,13,01,13,8.30
2010,01,13,01,14,8.30
2010,01,13,01,15,8.30
2010,01,13,01,16,8.30
2010,01,13,01,17,8.30
2010,01,13,01,18,8.20
2010,01,13,01,19,8.20
2010,01,13,01,20,8.30
2010,01,13,01,21,8.30
2010,01,13,01,22,8.30
2010,01,13,01,23,8.30
2010,01,13,01,24,8.30
2010,01,13,01,25,8.30
2010,01,13,01,26,8.30
2010,01,13,01,27,8.30
2010,01,13,01,28,8.40
2010,01,13,01,29,8.40
2010,01,13,01,30,8.40
2010,01,13,01,31,8.40
2010,01,13,01,32,8.40
2010,01,13,01,33,8.40
2010,01,13,01,34,8.40
2010,01,13,01,35,8.40
2010,01,13,01,36,8.50
2010,01,13,01,37,8.50
2010,01,13,01,38,8.50
2010,01,13,01,39,8.50
2010,01,13,01,40,8.50
2010,01,13,01,41,8.50
2010,01,13,01,42,8.50
2010,01,13,01,43,8.50
2010,01,13,01,44,8.50
2010,01,13,01,45,8.50
2010,01,13,01,46,8.50
2010,01,13,01,47,8.50
2010,01,13,01,48,8.50
2010,01,13,01,49,8.50
2010,01,13,01,50,8.50
2010,01,13,01,51,8.50
2010,01,13,01,52,8.50
2010,01,13,01,53,8.50
2010,01,13,01,54,8.50
2010,01,13,01,55,8.50
2010,01,13,01,56,8.50
2010,01,13,01,57,8.50
2010,01,13,01,58,8.50
2010,01,13,01,59,8.60
2010,01,13,02,00,8.60
2010,01,13,02,01,8.60
2010,01,13,02,02,8.60
2010,01,13,02,03,8.60
2010,01,13,02,04,8.60
2010,01,13,02,05,8.60
2010,01,13,02,06,8.60
2010,01,13,02,07,8.60
2010,01,13,02,08,8.60
2010,01,13,02,09,8.60
2010,01,13,02,10,8.60
2010,01,13,02,11,8.60
2010,01,13,02,12,8.60
2010,01,13,02,13,8.60
2010,01,13,02,14,8.60
2010,01,13,02,15,8.60
2010,01,13,02,16,8.60
2010,01,13,02,17,8.50
2010,01,13,02,18,8.50
2010,01,13,02,19,8.50
2010,01,13,02,20,8.50
2010,01,13,02,21,8.50
2010,01,13,02,22,8.50
2010,01,13,02,23,8.50
2010,01,13,02,24,8.50
2010,01,13,02,25,8.60
2010,01,13,02,26,8.60
2010,01,13,02,27,8.60
2010,01,13,02,28,8.60
2010,01,13,02,29,8.60
2010,01,13,02,30,8.60
2010,01,13,02,31,8.60
2010,01,13,02,32,8.60
2010,01,13,02,33,8.60
2010,01,13,02,34,8.60
2010,01,13,02,35,8.60
2010,01,13,02,36,8.60
2010,01,13,02,37,8.60
2010,01,13,02,38,8.60
2010,01,13,02,39,8.60
2010,01,13,02,40,8.60
2010,01,13,02,41,8.60
2010,01,13,02,42,8.60
2010,01,13,02,43,8.60
2010,01,13,02,44,8.60
2010,01,13,02,45,8.60
2010,01,13,02,46,8.60
2010,01,13,02,47,8.60
2010,01,13,02,48,8.60
2010,01,13,02,49,8.60
2010,01,13,02,50,8.60
2010,01,13,02,51,8.60
2010,01,13,02,52,8.60
2010,01,13,02,53,8.60
2010,01,13,02,54,8.60
2010,01,13,02,55,8.60
2010,01,13,02,56,8.60
2010,01,13,02,57,8.60
2010,01,13,02,58,8.60
2010,01,13,02,59,8.60
2010,01,13,03,00,8.60
2010,01,13,03,01,8.60
2010,01,13,03,02,8.60
2010,01,13,03,03,8.60
2010,01,13,03,04,8.60
2010,01,13,03,05,8.60
2010,01,13,03,06,8.70
2010,01,13,03,07,8.70
2010,01,13,03,08,8.70
2010,01,13,03,09,8.70
2010,01,13,03,10,8.70
2010,01,13,03,11,8.70
2010,01,13,03,12,8.70
2010,01,13,03,13,8.70
2010,01,13,03,14,8.80
2010,01,13,03,15,8.80
2010,01,13,03,16,8.80
2010,01,13,03,17,8.80
2010,01,13,03,18,8.80
2010,01,13,03,19,8.80
2010,01,13,03,20,8.90
2010,01,13,03,21,8.90
2010,01,13,03,22,8.90
2010,01,13,03,23,8.90
2010,01,13,03,24,8.90
2010,01,13,03,25,8.90
2010,01,13,03,26,8.90
2010,01,13,03,27,8.90
2010,01,13,03,28,8.90
2010,01,13,03,29,8.90
2010,01,13,03,30,8.90
2010,01,13,03,31,8.90
2010,01,13,03,32,8.90
2010,01,13,03,33,8.90
2010,01,13,03,34,8.90
2010,01,13,03,35,8.90
2010,01,13,03,36,8.90
2010,01,13,03,37,8.90
2010,01,13,03,38,8.90
2010,01,13,09,25,7.90
2010,01,13,09,26,7.90
2010,01,13,09,27,7.90
2010,01,13,09,28,7.90
2010,01,13,09,29,7.90
2010,01,13,09,30,7.90
2010,01,13,09,31,8.00
2010,01,13,09,32,8.00
2010,01,13,09,33,8.00
2010,01,13,09,34,8.00
2010,01,13,09,35,8.00
2010,01,13,09,36,8.10
2010,01,13,09,37,8.10
2010,01,13,09,38,8.10
2010,01,13,09,39,8.10
2010,01,13,09,40,8.10
2010,01,13,09,41,8.20
2010,01,13,09,42,8.20
2010,01,13,09,43,8.20
2010,01,13,09,44,8.20
2010,01,13,09,45,8.20
2010,01,13,09,46,8.20
2010,01,13,09,47,8.20
2010,01,13,09,48,8.20
2010,01,13,09,49,8.20
2010,01,13,09,50,8.30
2010,01,13,09,51,8.30
2010,01,13,09,52,8.30
2010,01,13,09,53,8.30
2010,01,13,09,54,8.30
2010,01,13,09,55,8.30
2010,01,13,09,56,8.30
2010,01,13,09,57,8.40
2010,01,13,09,58,8.40
2010,01,13,09,59,8.40
2010,01,13,10,00,8.40
2010,01,13,10,01,8.50
2010,01,13,10,02,8.50
2010,01,13,10,03,8.50
2010,01,13,10,04,8.50
2010,01,13,10,05,8.60
2010,01,13,10,06,8.70
2010,01,13,10,07,8.70
2010,01,13,10,08,8.70
2010,01,13,10,09,8.70
2010,01,13,10,10,8.70
2010,01,13,10,11,8.70
2010,01,13,10,12,8.70
2010,01,13,10,13,8.70
2010,01,13,10,14,8.70
2010,01,13,10,15,8.70
2010,01,13,10,16,8.70
2010,01,13,10,17,8.70
2010,01,13,10,18,8.70
2010,01,13,10,19,8.70
2010,01,13,10,20,8.70
2010,01,13,10,21,8.70
2010,01,13,10,22,8.70
2010,01,13,10,23,8.70
2010,01,13,10,24,8.70
2010,01,13,10,25,8.70
2010,01,13,10,26,8.60
2010,01,13,10,27,8.60
2010,01,13,10,28,8.70
2010,01,13,10,29,8.60
2010,01,13,10,30,8.60
2010,01,13,10,31,8.70
2010,01,13,10,32,8.70
2010,01,13,10,33,8.60
2010,01,13,10,34,8.60
2010,01,13,10,35,8.60
2010,01,13,10,36,8.60
2010,01,13,10,37,8.60
2010,01,13,10,38,8.70
2010,01,13,10,39,8.60
2010,01,13,10,40,8.60
2010,01,13,10,41,8.60
2010,01,13,10,42,8.60
2010,01,13,10,43,8.60
2010,01,13,10,44,8.60
2010,01,13,10,45,8.60
2010,01,13,10,46,8.60
2010,01,13,10,47,8.60
2010,01,13,10,48,8.60
2010,01,13,10,49,8.60
2010,01,13,10,50,8.60
2010,01,13,10,51,8.60
2010,01,13,10,52,8.60
2010,01,13,10,53,8.60
2010,01,13,10,54,8.60
2010,01,13,10,55,8.60
2010,01,13,10,56,8.60
2010,01,13,10,57,8.60
2010,01,13,10,58,8.60
2010,01,13,10,59,8.60
2010,01,13,11,00,8.60
2010,01,13,11,01,8.60
2010,01,13,11,02,8.60
2010,01,13,11,03,8.60
2010,01,13,11,04,8.70
2010,01,13,11,05,8.70
2010,01,13,11,06,8.70
2010,01,13,11,07,8.70
2010,01,13,11,08,8.70
2010,01,13,11,09,8.70
2010,01,13,11,10,8.70
2010,01,13,11,11,8.70
2010,01,13,11,12,8.70
2010,01,13,11,13,8.70
2010,01,13,11,14,8.70
2010,01,13,11,15,8.70
2010,01,13,11,16,8.70
2010,01,13,11,17,8.70
2010,01,13,11,18,8.70
2010,01,13,11,19,8.70
2010,01,13,11,20,8.70
2010,01,13,11,21,8.70
2010,01,13,11,22,8.70
2010,01,13,11,23,8.70
2010,01,13,11,24,8.70
2010,01,13,11,25,8.70
2010,01,13,11,26,8.70
2010,01,13,11,27,8.70
2010,01,13,11,28,8.70
2010,01,13,11,29,8.70
2010,01,13,11,30,8.70
2010,01,13,11,31,8.70
2010,01,13,11,32,8.70
2010,01,13,11,33,8.70
2010,01,13,11,34,8.70
2010,01,13,11,35,8.70
2010,01,13,11,36,8.70
2010,01,13,11,37,8.70
2010,01,13,11,38,8.70
2010,01,13,11,39,8.70
2010,01,13,11,40,8.70
2010,01,13,11,41,8.70
2010,01,13,11,42,8.70
2010,01,13,11,43,8.70
2010,01,13,11,44,8.70
2010,01,13,11,45,8.70
2010,01,13,11,46,8.80
2010,01,13,11,47,8.80
2010,01,13,11,48,8.80
2010,01,13,11,49,8.80
2010,01,13,11,50,8.80
2010,01,13,11,51,8.80
2010,01,13,11,52,8.80
2010,01,13,11,53,8.70
2010,01,13,11,54,8.70
2010,01,13,11,55,8.70
2010,01,13,11,56,8.70
2010,01,13,11,57,8.70
2010,01,13,11,58,8.70
2010,01,13,11,59,8.70
2010,01,13,12,00,8.70
2010,01,13,12,01,8.70
2010,01,13,12,02,8.70
2010,01,13,12,03,8.70
2010,01,13,12,04,8.70
2010,01,13,12,05,8.70
2010,01,13,12,06,8.70
2010,01,13,12,07,8.70
2010,01,13,12,08,8.70
2010,01,13,12,09,8.70
2010,01,13,12,10,8.70
2010,01,13,12,11,8.70
2010,01,13,12,12,8.70
2010,01,13,12,13,8.70
2010,01,13,12,14,8.70
2010,01,13,12,15,8.70
2010,01,13,12,16,8.70
2010,01,13,12,17,8.70
2010,01,13,12,18,8.70
2010,01,13,12,19,8.60
2010,01,13,12,20,8.60
2010,01,13,12,21,8.60
2010,01,13,12,22,8.60
2010,01,13,12,23,8.60
2010,01,13,12,24,8.60
2010,01,13,12,25,8.60
2010,01,13,12,26,8.50
2010,01,13,12,27,8.50
2010,01,13,12,28,8.50
2010,01,13,12,29,8.50
2010,01,13,12,30,8.50
2010,01,13,12,31,8.50
2010,01,13,12,32,8.60
2010,01,13,12,33,8.60
2010,01,13,12,34,8.50
2010,01,13,12,35,8.50
2010,01,13,12,36,8.50
2010,01,13,12,37,8.50
2010,01,13,12,38,8.50
2010,01,13,12,39,8.50
2010,01,13,12,40,8.50
2010,01,13,12,41,8.50
2010,01,13,12,42,8.50
2010,01,13,12,43,8.50
2010,01,13,12,44,8.50
2010,01,13,12,45,8.50
2010,01,13,12,46,8.50
2010,01,13,12,47,8.50
2010,01,13,12,48,8.50
2010,01,13,12,49,8.50
2010,01,13,12,50,8.50
2010,01,13,12,51,8.50
2010,01,13,12,52,8.50
2010,01,13,12,53,8.50
2010,01,13,12,54,8.50
2010,01,13,12,55,8.50
2010,01,13,12,56,8.50
2010,01,13,12,57,8.50
2010,01,13,12,58,8.50
2010,01,13,12,59,8.50
2010,01,13,13,00,8.50
2010,01,13,13,01,8.50
2010,01,13,13,02,8.50
2010,01,13,13,03,8.50
2010,01,13,13,04,8.50
2010,01,13,13,05,8.60
2010,01,13,13,06,8.60
2010,01,13,13,07,8.60
2010,01,13,13,08,8.60
2010,01,13,13,09,8.60
2010,01,13,13,10,8.60
2010,01,13,13,11,8.60
2010,01,13,13,12,8.60
2010,01,13,13,13,8.60
2010,01,13,13,14,8.60
2010,01,13,13,15,8.60
2010,01,13,13,16,8.60
2010,01,13,13,17,8.60
2010,01,13,13,18,8.60
2010,01,13,13,19,8.60
2010,01,13,13,20,8.70
2010,01,13,13,21,8.70
2010,01,13,13,22,8.70
2010,01,13,13,23,8.70
2010,01,13,13,24,8.70
2010,01,13,13,25,8.70
2010,01,13,13,26,8.70
2010,01,13,13,27,8.70
2010,01,13,13,28,8.70
2010,01,13,13,29,8.70
2010,01,13,13,30,8.70
2010,01,13,13,31,8.70
2010,01,13,13,32,8.70
2010,01,13,13,33,8.70
2010,01,13,13,34,8.70
2010,01,13,13,35,8.70
2010,01,13,13,36,8.70
2010,01,13,13,37,8.70
2010,01,13,13,38,8.70
2010,01,13,13,39,8.70
2010,01,13,13,40,8.70
2010,01,13,13,41,8.70
2010,01,13,13,42,8.70
2010,01,13,13,43,8.70
2010,01,13,13,44,8.80
2010,01,13,13,45,8.80
2010,01,13,13,46,8.80
2010,01,13,13,47,8.80
2010,01,13,13,48,8.80
2010,01,13,13,49,8.80
2010,01,13,13,50,8.80
2010,01,13,13,51,8.80
2010,01,13,13,52,8.80
2010,01,13,13,53,8.80
2010,01,13,13,54,8.90
2010,01,13,13,55,8.90
2010,01,13,13,56,8.90
2010,01,13,13,57,8.90
2010,01,13,13,58,8.90
2010,01,13,13,59,8.90
2010,01,13,14,00,8.90
2010,01,13,14,01,8.90
2010,01,13,14,02,8.90
2010,01,13,14,03,8.90
2010,01,13,14,04,8.90
2010,01,13,14,05,8.80
2010,01,13,14,06,8.80
2010,01,13,14,07,8.80
2010,01,13,14,08,8.80
2010,01,13,14,09,8.80
2010,01,13,14,10,8.80
2010,01,13,14,11,8.80
2010,01,13,14,12,8.80
2010,01,13,14,13,8.80
2010,01,13,14,14,8.80
2010,01,13,14,15,8.80
2010,01,13,14,16,8.80
2010,01,13,14,17,8.80
2010,01,13,14,18,8.80
2010,01,13,14,19,8.80
2010,01,13,14,20,8.70
2010,01,13,14,21,8.70
2010,01,13,14,22,8.70
2010,01,13,14,23,8.70
2010,01,13,14,24,8.70
2010,01,13,14,25,8.70
2010,01,13,14,26,8.70
2010,01,13,14,27,8.70
2010,01,13,14,28,8.70
2010,01,13,14,29,8.70
2010,01,13,14,30,8.70
2010,01,13,14,31,8.70
2010,01,13,14,32,8.70
2010,01,13,14,33,8.70
2010,01,13,14,34,8.70
2010,01,13,14,35,8.70
2010,01,13,14,36,8.70
2010,01,13,14,37,8.70
2010,01,13,14,38,8.70
2010,01,13,14,39,8.70
2010,01,13,14,40,8.70
2010,01,13,14,41,8.70
2010,01,13,14,42,8.80
2010,01,13,14,43,8.80
2010,01,13,14,44,8.70
2010,01,13,14,45,8.70
2010,01,13,14,46,8.70
2010,01,13,14,47,8.70
2010,01,13,14,48,8.80
2010,01,13,14,49,8.80
2010,01,13,14,50,8.70
2010,01,13,14,51,8.70
2010,01,13,14,52,8.70
2010,01,13,14,53,8.70
2010,01,13,14,54,8.70
2010,01,13,14,55,8.70
2010,01,13,14,56,8.70
2010,01,13,14,57,8.70
2010,01,13,14,58,8.70
2010,01,13,14,59,8.70
2010,01,13,15,00,8.70
2010,01,13,15,01,8.70
2010,01,13,15,02,8.70
2010,01,13,15,03,8.70
2010,01,13,15,04,8.70
2010,01,13,15,05,8.70
2010,01,13,15,06,8.70
2010,01,13,15,07,8.70
2010,01,13,15,08,8.70
2010,01,13,15,09,8.70
2010,01,13,15,10,8.70
2010,01,13,15,11,8.70
2010,01,13,15,12,8.70
2010,01,13,15,13,8.70
2010,01,13,15,14,8.70
2010,01,13,15,15,8.70
2010,01,13,15,16,8.70
2010,01,13,15,17,8.70
2010,01,13,15,18,8.70
2010,01,13,15,19,8.70
2010,01,13,15,20,8.70
2010,01,13,15,21,8.70
2010,01,13,15,22,8.70
2010,01,13,15,23,8.70
2010,01,13,15,24,8.70
2010,01,13,15,25,8.80
2010,01,13,15,26,8.80
2010,01,13,15,27,8.80
2010,01,13,15,28,8.80
2010,01,13,15,29,8.80
2010,01,13,15,30,8.80
2010,01,13,15,31,8.80
2010,01,13,15,32,8.80
2010,01,13,15,33,8.80
2010,01,13,15,34,8.80
2010,01,13,15,35,8.80
2010,01,13,15,36,8.80
2010,01,13,15,37,8.80
2010,01,13,15,38,8.80
2010,01,13,15,39,8.80
2010,01,13,15,40,8.80
2010,01,13,15,41,8.80
2010,01,13,15,42,8.80
2010,01,13,15,43,8.80
2010,01,13,15,44,8.70
2010,01,13,15,45,8.80
2010,01,13,15,46,8.80
2010,01,13,15,47,8.80
2010,01,13,15,48,8.80
2010,01,13,15,49,8.80
2010,01,13,15,50,8.80
2010,01,13,15,51,8.80
2010,01,13,15,52,8.80
2010,01,13,15,53,8.80
2010,01,13,15,54,8.80
2010,01,13,15,55,8.80
2010,01,13,15,56,8.80
2010,01,13,15,57,8.80
2010,01,13,15,58,8.80
2010,01,13,15,59,8.80
2010,01,13,16,00,8.80
2010,01,13,16,01,8.80
2010,01,13,16,02,8.80
2010,01,13,16,03,8.80
2010,01,13,16,04,8.80
2010,01,13,16,05,8.80
2010,01,13,16,06,8.80
2010,01,13,16,07,8.80
2010,01,13,16,08,8.80
2010,01,13,16,09,8.80
2010,01,13,16,10,8.80
2010,01,13,16,11,8.80
2010,01,13,16,12,8.80
2010,01,13,16,13,8.80
2010,01,13,16,14,8.80
2010,01,13,16,15,8.80
2010,01,13,16,16,8.80
2010,01,13,16,17,8.80
2010,01,13,16,18,8.80
2010,01,13,16,19,8.80
2010,01,13,16,20,8.80
2010,01,13,16,21,8.80
2010,01,13,16,22,8.80
2010,01,13,16,23,8.80
2010,01,13,16,24,8.80
2010,01,13,16,25,8.70
2010,01,13,16,26,8.70
2010,01,13,16,27,8.70
2010,01,13,16,28,8.70
2010,01,13,16,29,8.70
2010,01,13,16,30,8.70
2010,01,13,16,31,8.70
2010,01,13,16,32,8.70
2010,01,13,16,33,8.70
2010,01,13,16,34,8.70
2010,01,13,16,35,8.70
2010,01,13,16,36,8.70
2010,01,13,16,37,8.70
2010,01,13,16,38,8.70
2010,01,13,16,39,8.70
2010,01,13,16,40,8.70
2010,01,13,16,41,8.70
2010,01,13,16,42,8.70
2010,01,13,16,43,8.70
2010,01,13,16,44,8.60
2010,01,13,16,45,8.60
2010,01,13,16,46,8.60
2010,01,13,16,47,8.60
2010,01,13,16,48,8.60
2010,01,13,16,49,8.60
2010,01,13,16,50,8.60
2010,01,13,16,51,8.50
2010,01,13,16,52,8.50
2010,01,13,16,53,8.50
2010,01,13,16,54,8.50
2010,01,13,16,55,8.50
2010,01,13,16,56,8.50
2010,01,13,16,57,8.50
2010,01,13,16,58,8.50
2010,01,13,16,59,8.50
2010,01,13,17,00,8.50
2010,01,13,17,01,8.50
2010,01,13,17,02,8.50
2010,01,13,17,03,8.50
2010,01,13,17,04,8.50
2010,01,13,17,05,8.50
2010,01,13,17,06,8.50
2010,01,13,17,07,8.50
2010,01,13,17,08,8.50
2010,01,13,17,09,8.50
2010,01,13,17,10,8.50
2010,01,13,17,11,8.50
2010,01,13,17,12,8.50
2010,01,13,17,13,8.50
2010,01,13,17,14,8.50
2010,01,13,17,15,8.50
2010,01,13,17,16,8.50
2010,01,13,17,17,8.50
2010,01,13,17,18,8.50
2010,01,13,17,19,8.50
2010,01,13,17,20,8.50
2010,01,13,17,21,8.50
2010,01,13,17,22,8.50
2010,01,13,17,23,8.50
2010,01,13,17,24,8.50
2010,01,13,17,25,8.50
2010,01,13,17,26,8.50
2010,01,13,17,27,8.50
2010,01,13,17,28,8.50
2010,01,13,17,29,8.50
2010,01,13,17,30,8.50
2010,01,13,17,31,8.50
2010,01,13,17,32,8.50
2010,01,13,17,33,8.50
2010,01,13,17,34,8.50
2010,01,13,17,35,8.50
2010,01,13,17,36,8.50
2010,01,13,17,37,8.50
2010,01,13,17,38,8.50
2010,01,13,17,39,8.50
2010,01,13,17,40,8.40
2010,01,13,17,41,8.40
2010,01,13,17,42,8.40
2010,01,13,17,43,8.40
2010,01,13,17,44,8.50
2010,01,13,17,45,8.50
2010,01,13,17,46,8.50
2010,01,13,17,47,8.50
2010,01,13,17,48,8.50
2010,01,13,17,49,8.50
2010,01,13,17,50,8.50
2010,01,13,17,51,8.50
2010,01,13,17,52,8.50
2010,01,13,17,53,8.50
2010,01,13,17,54,8.60
2010,01,13,17,55,8.60
2010,01,13,17,56,8.60
2010,01,13,17,57,8.60
2010,01,13,17,58,8.60
2010,01,13,17,59,8.60
2010,01,13,18,00,8.60
2010,01,13,18,01,8.60
2010,01,13,18,02,8.60
2010,01,13,18,03,8.60
2010,01,13,18,04,8.60
2010,01,13,18,05,8.60
2010,01,13,18,06,8.60
2010,01,13,18,07,8.60
2010,01,13,18,08,8.60
2010,01,13,18,09,8.60
2010,01,13,18,10,8.60
2010,01,13,18,11,8.60
2010,01,13,18,12,8.60
2010,01,13,18,13,8.60
2010,01,13,18,14,8.60
2010,01,13,18,15,8.60
2010,01,13,18,16,8.60
2010,01,13,18,17,8.60
2010,01,13,18,18,8.60
2010,01,13,18,19,8.60
2010,01,13,18,20,8.60
2010,01,13,18,21,8.60
2010,01,13,18,22,8.60
2010,01,13,18,23,8.60
2010,01,13,18,24,8.60
2010,01,13,18,25,8.60
2010,01,13,18,26,8.60
2010,01,13,18,27,8.60
2010,01,13,18,28,8.60
2010,01,13,18,29,8.60
2010,01,13,18,30,8.60
2010,01,13,18,31,8.60
2010,01,13,18,32,8.70
2010,01,13,18,33,8.70
2010,01,13,18,34,8.70
2010,01,13,18,35,8.60
2010,01,13,18,36,8.60
2010,01,13,18,37,8.60
2010,01,13,18,38,8.60
2010,01,13,18,39,8.60
2010,01,13,18,40,8.60
2010,01,13,18,41,8.60
2010,01,13,18,42,8.60
2010,01,13,18,43,8.60
2010,01,13,18,44,8.60
2010,01,13,18,45,8.50
2010,01,13,18,46,8.50
2010,01,13,18,47,8.50
2010,01,13,18,48,8.50
2010,01,13,18,49,8.50
2010,01,13,18,50,8.50
2010,01,13,18,51,8.50
2010,01,13,18,52,8.50
2010,01,13,18,53,8.50
2010,01,13,18,54,8.50
2010,01,13,18,55,8.40
2010,01,13,18,56,8.40
2010,01,13,18,57,8.40
2010,01,13,18,58,8.40
2010,01,13,18,59,8.40
2010,01,13,19,00,8.40
2010,01,13,19,01,8.40
2010,01,13,19,02,8.30
2010,01,13,19,03,8.30
2010,01,13,19,04,8.30
2010,01,13,19,05,8.30
2010,01,13,19,06,8.30
2010,01,13,19,07,8.30
2010,01,13,19,08,8.30
2010,01,13,19,09,8.20
2010,01,13,19,10,8.20
2010,01,13,19,11,8.30
2010,01,13,19,12,8.30
2010,01,13,19,13,8.30
2010,01,13,19,14,8.30
2010,01,13,19,15,8.30
2010,01,13,19,16,8.30
2010,01,13,19,17,8.30
2010,01,13,19,18,8.30
2010,01,13,19,19,8.30
2010,01,13,19,20,8.30
2010,01,13,19,21,8.30
2010,01,13,19,22,8.30
2010,01,13,19,23,8.30
2010,01,13,19,24,8.30
2010,01,13,19,25,8.30
2010,01,13,19,26,8.30
2010,01,13,19,27,8.30
2010,01,13,19,28,8.30
2010,01,13,19,29,8.30
2010,01,13,19,30,8.30
2010,01,13,19,31,8.30
2010,01,13,19,32,8.30
2010,01,13,19,33,8.30
2010,01,13,19,34,8.30
2010,01,13,19,35,8.30
2010,01,13,19,36,8.30
2010,01,13,19,37,8.30
2010,01,13,19,38,8.30
2010,01,13,19,39,8.30
2010,01,13,19,40,8.30
2010,01,13,19,41,8.30
2010,01,13,19,42,8.40
2010,01,13,19,43,8.40
2010,01,13,19,44,8.40
2010,01,13,19,45,8.40
2010,01,13,19,46,8.40
2010,01,13,19,47,8.40
2010,01,13,19,48,8.40
2010,01,13,19,49,8.50
2010,01,13,19,50,8.50
2010,01,13,19,51,8.50
2010,01,13,19,52,8.50
2010,01,13,19,53,8.50
2010,01,13,19,54,8.50
2010,01,13,19,55,8.50
2010,01,13,19,56,8.50
2010,01,13,19,57,8.50
2010,01,13,19,58,8.50
2010,01,13,19,59,8.50
2010,01,13,20,00,8.50
2010,01,13,20,01,8.50
2010,01,13,20,02,8.50
2010,01,13,20,03,8.60
2010,01,13,20,04,8.60
2010,01,13,20,05,8.60
2010,01,13,20,06,8.60
2010,01,13,20,07,8.60
2010,01,13,20,08,8.60
2010,01,13,20,09,8.60
2010,01,13,20,10,8.60
2010,01,13,20,11,8.60
2010,01,13,20,12,8.60
2010,01,13,20,13,8.60
2010,01,13,20,14,8.60
2010,01,13,20,15,8.60
2010,01,13,20,16,8.60
2010,01,13,20,17,8.60
2010,01,13,20,18,8.60
2010,01,13,20,19,8.60
2010,01,13,20,20,8.60
2010,01,13,20,21,8.60
2010,01,13,20,22,8.60
2010,01,13,20,23,8.60
2010,01,13,20,24,8.70
2010,01,13,20,25,8.70
2010,01,13,20,26,8.70
2010,01,13,20,27,8.70
2010,01,13,20,28,8.70
2010,01,13,20,29,8.70
2010,01,13,20,30,8.70
2010,01,13,20,31,8.70
2010,01,13,20,32,8.70
2010,01,13,20,33,8.70
2010,01,13,20,34,8.70
2010,01,13,20,35,8.70
2010,01,13,20,36,8.70
2010,01,13,20,37,8.70
2010,01,13,20,38,8.70
2010,01,13,20,39,8.70
2010,01,13,20,40,8.70
2010,01,13,20,41,8.70
2010,01,13,20,42,8.70
2010,01,13,20,43,8.70
2010,01,13,20,44,8.70
2010,01,13,20,45,8.70
2010,01,13,20,46,8.70
2010,01,13,20,47,8.70
2010,01,13,20,48,8.70
2010,01,13,20,49,8.70
2010,01,13,20,50,8.70
2010,01,13,20,51,8.70
2010,01,13,20,52,8.70
2010,01,13,20,53,8.70
2010,01,13,20,54,8.70
2010,01,13,20,55,8.70
2010,01,13,20,56,8.70
2010,01,13,20,57,8.70
2010,01,13,20,58,8.70
2010,01,13,20,59,8.70
2010,01,13,21,00,8.60
2010,01,13,21,01,8.70
2010,01,13,21,02,8.70
2010,01,13,21,03,8.70
2010,01,13,21,04,8.70
2010,01,13,21,05,8.70
2010,01,13,21,06,8.70
2010,01,13,21,07,8.70
2010,01,13,21,08,8.70
2010,01,13,21,09,8.70
2010,01,13,21,10,8.70
2010,01,13,21,11,8.70
2010,01,13,21,12,8.70
2010,01,13,21,13,8.70
2010,01,13,21,14,8.70
2010,01,13,21,15,8.70
2010,01,13,21,16,8.70
2010,01,13,21,17,8.70
2010,01,13,21,18,8.70
2010,01,13,21,19,8.70
2010,01,13,21,20,8.70
2010,01,13,21,21,8.70
2010,01,13,21,22,8.70
2010,01,13,21,23,8.70
2010,01,13,21,24,8.70
2010,01,13,21,25,8.70
2010,01,13,21,26,8.70
2010,01,13,21,27,8.70
2010,01,13,21,28,8.70
2010,01,13,21,29,8.70
2010,01,13,21,30,8.70
2010,01,13,21,31,8.60
2010,01,13,21,32,8.60
2010,01,13,21,33,8.60
2010,01,13,21,34,8.60
2010,01,13,21,35,8.60
2010,01,13,21,36,8.60
2010,01,13,21,37,8.60
2010,01,13,21,38,8.70
2010,01,13,21,39,8.70
2010,01,13,21,40,8.70
2010,01,13,21,41,8.80
2010,01,13,21,42,8.90
2010,01,13,21,43,8.90
2010,01,13,21,44,9.00
2010,01,13,21,45,9.00
2010,01,13,21,46,9.10
2010,01,13,21,47,9.10
2010,01,13,21,48,9.20
2010,01,13,21,49,9.20
2010,01,13,21,50,9.20
2010,01,13,21,51,9.20
2010,01,13,21,52,9.30
2010,01,13,21,53,9.30
2010,01,13,21,54,9.30
2010,01,13,21,55,9.30
2010,01,13,21,56,9.40
2010,01,13,21,57,9.40
2010,01,13,21,58,9.40
2010,01,13,21,59,9.40
2010,01,13,22,00,9.40
2010,01,13,22,01,9.40
2010,01,13,22,02,9.50
2010,01,13,22,03,9.50
2010,01,13,22,04,9.50
2010,01,13,22,05,9.50
2010,01,13,22,06,9.50
2010,01,13,22,07,9.50
2010,01,13,22,08,9.50
2010,01,13,22,09,9.50
2010,01,13,22,10,9.50
2010,01,13,22,11,9.50
2010,01,13,22,12,9.50
2010,01,13,22,13,9.50
2010,01,13,22,14,9.50
2010,01,13,22,15,9.50
2010,01,13,22,16,9.50
2010,01,13,22,17,9.50
2010,01,13,22,18,9.50
2010,01,13,22,19,9.50
2010,01,13,22,20,9.40
2010,01,13,22,21,9.40
2010,01,13,22,22,9.40
2010,01,13,22,23,9.40
2010,01,13,22,24,9.40
2010,01,13,22,25,9.40
2010,01,13,22,26,9.30
2010,01,13,22,27,9.30
2010,01,13,22,28,9.30
2010,01,13,22,29,9.30
2010,01,13,22,30,9.30
2010,01,13,22,31,9.30
2010,01,13,22,32,9.30
2010,01,13,22,33,9.20
2010,01,13,22,34,9.20
2010,01,13,22,35,9.20
2010,01,13,22,36,9.20
2010,01,13,22,37,9.20
2010,01,13,22,38,9.20
2010,01,13,22,39,9.20
2010,01,13,22,40,9.20
2010,01,13,22,41,9.20
2010,01,13,22,42,9.20
2010,01,13,22,43,9.20
2010,01,13,22,44,9.20
2010,01,13,22,45,9.10
2010,01,13,22,46,9.10
2010,01,13,22,47,9.10
2010,01,13,22,48,9.10
2010,01,13,22,49,9.10
2010,01,13,22,50,9.10
2010,01,13,22,51,9.10
2010,01,13,22,52,9.10
2010,01,13,22,53,9.10
2010,01,13,22,54,9.10
2010,01,13,22,55,9.10
2010,01,13,22,56,9.10
2010,01,13,22,57,9.10
2010,01,13,22,58,9.10
2010,01,13,22,59,9.10
2010,01,13,23,00,9.10
2010,01,13,23,01,9.00
2010,01,13,23,02,9.00
2010,01,13,23,03,9.00
2010,01,13,23,04,9.00
2010,01,13,23,05,9.00
2010,01,13,23,06,9.00
2010,01,13,23,07,9.00
2010,01,13,23,08,9.00
2010,01,13,23,09,9.00
2010,01,13,23,10,9.00
2010,01,13,23,11,9.10
2010,01,13,23,12,9.10
2010,01,13,23,13,9.10
2010,01,13,23,14,9.10
2010,01,13,23,15,9.10
2010,01,13,23,16,9.10
2010,01,13,23,17,9.20
2010,01,13,23,18,9.20
2010,01,13,23,19,9.20
2010,01,13,23,20,9.20
2010,01,13,23,21,9.20
2010,01,13,23,22,9.20
2010,01,13,23,23,9.10
2010,01,13,23,24,9.10
2010,01,13,23,25,9.10
2010,01,13,23,26,9.10
2010,01,13,23,27,9.10
2010,01,13,23,28,9.10
2010,01,13,23,29,9.10
2010,01,13,23,30,9.10
2010,01,13,23,31,9.10
2010,01,13,23,32,9.10
2010,01,13,23,33,9.10
2010,01,13,23,34,9.10
2010,01,13,23,35,9.10
2010,01,13,23,36,9.10
2010,01,13,23,37,9.10
2010,01,13,23,38,9.10
2010,01,13,23,39,9.10
2010,01,13,23,40,9.10
2010,01,13,23,41,9.10
2010,01,13,23,42,9.10
2010,01,13,23,43,9.10
2010,01,13,23,44,9.10
2010,01,13,23,45,9.10
2010,01,13,23,46,9.10
2010,01,13,23,47,9.10
2010,01,13,23,48,9.10
2010,01,13,23,49,9.10
2010,01,13,23,50,9.10
2010,01,13,23,51,9.10
2010,01,13,23,52,9.10